EW5962 Weather Reports


time (UTC)temp
C
wind
direction
speed
KPH
gust
KPH
rain 1hr
cm
rain 24hr
cm
rain mn
cm
humidity
%
barometer
mb
20260906202103 28 184 0.0 0.0 0.00 0.00 0.00 75 1010.2
20260906201503 28 184 0.0 0.0 0.00 0.00 0.00 74 1010.2
20260906201010 28 184 0.0 0.0 0.00 0.00 0.00 73 1010.3
20260906200606 28 184 0.0 0.0 0.00 0.00 0.00 73 1010.4
20260906200005 28 186 0.0 0.0 0.00 0.00 0.00 72 1010.4
20260906195510 28 186 0.0 0.0 0.00 0.46 0.00 73 1010.5
20260906195104 28 144 0.0 0.0 0.00 0.46 0.00 75 1010.5
20260906194503 28 144 0.0 1.6 0.00 0.46 0.00 73 1010.7
20260906194013 28 147 0.0 0.0 0.00 0.46 0.00 73 1010.8
20260906193603 28 148 0.0 0.0 0.00 0.46 0.00 73 1010.8
20260906193003 28 147 0.0 0.0 0.00 0.46 0.00 76 1010.9
20260906192509 28 248 0.0 1.6 0.00 0.46 0.00 75 1011.0
20260906192103 28 56 0.0 1.6 0.00 0.46 0.00 76 1011.0
20260906191503 28 338 0.0 1.6 0.00 0.46 0.00 73 1011.0
20260906191010 28 336 0.0 1.6 0.00 0.46 0.00 70 1011.1
20260906190606 28 112 0.0 0.0 0.00 0.46 0.00 75 1011.1
20260906190003 27 48 0.0 0.0 0.00 0.46 0.00 75 1011.1
20260906185509 27 355 0.0 0.0 0.00 0.46 0.00 78 1011.1
20260906185104 27 119 0.0 0.0 0.00 0.46 0.00 78 1011.2
20260906184503 27 228 0.0 0.0 0.00 0.46 0.00 78 1011.5
20260906184010 27 333 0.0 1.6 0.00 0.46 0.00 77 1011.5
20260906183006 27 185 0.0 0.0 0.00 0.46 0.00 82 1011.5
20260906182509 27 186 0.0 0.0 0.00 0.46 0.00 81 1011.5
20260906182103 26 226 0.0 0.0 0.00 0.46 0.00 82 1011.5
20260906181504 26 80 0.0 1.6 0.00 0.46 0.00 90 1011.7
20260906181010 25 303 0.0 1.6 0.00 0.46 0.00 89 1011.7
20260906180603 25 269 0.0 0.0 0.00 0.46 0.00 92 1011.7
20260906180003 24 269 0.0 0.0 0.00 0.46 0.00 93 1011.7
20260906175510 23 269 0.0 0.0 0.00 0.46 0.00 93 1011.7
20260906175104 23 269 0.0 0.0 0.00 0.46 0.00 94 1011.8
20260906174504 23 269 0.0 0.0 0.00 0.46 0.00 94 1011.9
20260906174010 23 269 0.0 0.0 0.00 0.46 0.00 94 1011.9
20260906173606 23 269 0.0 0.0 0.00 0.46 0.00 93 1011.8
20260906173003 23 269 0.0 0.0 0.00 0.46 0.00 93 1011.9
20260906172509 23 269 0.0 0.0 0.00 0.46 0.00 92 1012.1
20260906172106 23 269 0.0 0.0 0.00 0.46 0.00 92 1012.0
20260906171506 23 269 0.0 0.0 0.00 0.46 0.00 92 1012.0
20260906171010 23 269 0.0 0.0 0.00 0.46 0.00 91 1012.0
20260906170604 23 269 0.0 0.0 0.00 0.46 0.00 91 1012.0
20260906170004 23 269 0.0 0.0 0.00 0.46 0.00 91 1012.1
20260906165512 23 269 0.0 0.0 0.00 0.46 0.00 91 1012.2
20260906165103 23 269 0.0 0.0 0.00 0.46 0.00 91 1012.2
20260906164503 23 269 0.0 0.0 0.00 0.46 0.00 90 1012.2
20260906164009 23 269 0.0 0.0 0.00 0.46 0.00 90 1012.3
20260906163606 24 269 0.0 0.0 0.00 0.46 0.00 89 1012.4
20260906163003 24 269 0.0 0.0 0.00 0.46 0.00 88 1012.4
20260906162513 24 269 0.0 0.0 0.00 0.46 0.00 88 1012.2
20260906162103 24 269 0.0 0.0 0.00 0.46 0.00 86 1012.3
20260906161504 25 269 0.0 1.6 0.00 0.46 0.00 86 1012.3
20260906161009 25 269 0.0 1.6 0.00 0.46 0.00 86 1012.3
20260906160604 25 268 0.0 1.6 0.00 0.46 0.00 86 1012.4
20260906160002 25 268 0.0 0.0 0.00 0.46 0.00 86 1012.3
20260906155515 25 268 0.0 0.0 0.00 0.46 0.00 86 1012.2
20260906155003 25 268 0.0 0.0 0.00 0.46 0.00 85 1012.3
20260906154603 25 268 0.0 1.6 0.00 0.46 0.00 85 1012.2
20260906154004 25 268 0.0 1.6 0.00 0.46 0.00 84 1012.3
20260906153509 25 267 0.0 1.6 0.00 0.46 0.00 83 1012.3
20260906153104 25 316 0.0 0.0 0.00 0.46 0.00 85 1012.2
20260906152502 25 316 0.0 0.0 0.00 0.46 0.00 87 1012.2
20260906152103 25 315 0.0 0.0 0.00 0.46 0.00 86 1012.2
20260906151515 25 314 0.0 0.0 0.00 0.46 0.00 85 1012.3
20260906151013 25 314 0.0 0.0 0.00 0.46 0.00 85 1012.2
20260906150606 25 1 0.0 0.0 0.00 0.46 0.00 84 1012.2
20260906150009 25 309 0.0 0.0 0.00 0.46 0.00 84 1012.2
20260906145518 25 307 0.0 1.6 0.00 0.46 0.00 86 1012.2
20260906145017 25 307 0.0 1.6 0.00 0.46 0.00 84 1012.2
20260906144519 25 299 0.0 0.0 0.00 0.46 0.00 85 1012.2
20260906144007 25 14 0.0 0.0 0.00 0.46 0.00 85 1012.3
20260906143503 25 339 0.0 0.0 0.00 0.46 0.00 86 1012.2
20260906143013 25 339 0.0 0.0 0.00 0.46 0.00 84 1012.3
20260906142604 25 335 0.0 1.6 0.00 0.46 0.00 85 1012.2
20260906142038 24 6 0.0 1.6 0.00 0.46 0.00 85 1012.1
20260906141537 24 329 0.0 1.6 0.00 0.46 0.00 86 1012.0
20260906141034 24 337 0.0 0.0 0.00 0.46 0.00 87 1012.0
20260906140534 -17 0.0 0.0 0.00 0.46 0.00 1011.9
20260906131010 22 265 0.0 0.0 0.00 0.46 0.00 97 1011.6
20260906130602 22 265 0.0 0.0 0.00 0.46 0.00 97 1011.7
20260906130003 22 265 0.0 3.2 0.00 0.46 0.00 98 1011.5
20260906125511 22 265 0.0 3.2 0.00 0.46 0.00 98 1011.7
20260906125104 22 265 0.0 0.0 0.00 0.46 0.00 98 1011.6
20260906124503 22 265 0.0 0.0 0.00 0.46 0.00 98 1011.8
20260906124009 22 265 0.0 4.8 0.00 0.46 0.00 98 1011.9
20260906123602 22 265 0.0 4.8 0.00 0.46 0.00 98 1011.8
20260906123002 22 252 0.0 0.0 0.00 0.46 0.00 98 1011.7
20260906122509 22 252 0.0 3.2 0.00 0.46 0.00 98 1011.6
20260906122102 22 252 0.0 3.2 0.00 0.46 0.00 98 1011.5
20260906121503 21 191 0.0 0.0 0.00 0.46 0.00 98 1011.5
20260906121003 21 191 0.0 0.0 0.00 0.46 0.00 98 1011.4
20260906120511 21 191 0.0 0.0 0.00 0.46 0.00 98 1011.2
20260906120111 21 191 0.0 0.0 0.00 0.46 0.00 98 1011.2
20260906115503 21 191 0.0 0.0 0.00 0.46 0.00 98 1011.1
20260906115010 21 191 0.0 0.0 0.00 0.46 0.00 98 1011.2
20260906114607 21 191 0.0 0.0 0.00 0.46 0.00 98 1011.2
20260906114003 21 191 0.0 0.0 0.00 0.46 0.00 98 1011.1
20260906113508 21 191 0.0 0.0 0.00 0.46 0.00 98 1011.1
20260906113108 20 191 0.0 0.0 0.00 0.46 0.00 98 1011.2
20260906112503 20 191 0.0 0.0 0.00 0.46 0.00 98 1011.1
20260906112009 20 191 0.0 0.0 0.00 0.46 0.00 98 1011.1
20260906111603 20 191 0.0 0.0 0.00 0.46 0.00 98 1011.0
20260906111003 20 191 0.0 0.0 0.00 0.46 0.00 98 1011.1
20260906110509 20 191 0.0 0.0 0.00 0.46 0.00 98 1011.0
20260906105504 21 191 0.0 0.0 0.00 0.46 0.00 98 1010.9
20260906105009 21 184 0.0 0.0 0.00 0.46 0.00 98 1010.8
20260906104603 21 184 0.0 0.0 0.00 0.46 0.00 98 1010.8
20260906104003 21 183 0.0 0.0 0.00 0.46 0.00 98 1010.8
20260906103509 21 183 0.0 0.0 0.00 0.46 0.00 98 1010.7
20260906103104 21 183 0.0 0.0 0.00 0.46 0.00 98 1010.6
20260906102504 21 183 0.0 0.0 0.00 0.46 0.00 98 1010.6
20260906102009 21 183 0.0 0.0 0.00 0.46 0.00 98 1010.6
20260906101604 20 183 0.0 0.0 0.00 0.46 0.00 98 1010.6
20260906101003 20 183 0.0 0.0 0.00 0.46 0.00 98 1010.5
20260906100509 20 183 0.0 0.0 0.00 0.46 0.00 98 1010.4
20260906095502 20 183 0.0 0.0 0.00 0.46 0.00 98 1010.1
20260906095009 20 183 0.0 0.0 0.00 0.46 0.00 98 1010.1
20260906094604 20 183 0.0 0.0 0.00 0.46 0.00 98 1010.2
20260906094003 20 183 0.0 0.0 0.00 0.46 0.00 98 1010.3
20260906093509 19 183 0.0 0.0 0.00 0.46 0.00 97 1010.2
20260906093103 19 183 0.0 0.0 0.00 0.46 0.00 97 1010.1
20260906092502 19 183 0.0 0.0 0.00 0.46 0.00 97 1010.1
20260906092008 19 183 0.0 0.0 0.00 0.46 0.00 97 1010.1
20260906091603 19 183 0.0 0.0 0.00 0.46 0.00 97 1009.9
20260906091003 19 183 0.0 0.0 0.00 0.46 0.00 97 1009.7
20260906090508 19 183 0.0 0.0 0.00 0.46 0.00 97 1009.6
20260906090103 19 183 0.0 0.0 0.00 0.46 0.00 97 1009.6
20260906085505 19 183 0.0 0.0 0.00 0.46 0.00 97 1009.4
20260906085009 19 183 0.0 0.0 0.00 0.46 0.00 97 1009.5
20260906084603 19 183 0.0 0.0 0.00 0.46 0.00 97 1009.5
20260906084005 19 183 0.0 0.0 0.00 0.46 0.00 97 1009.6
20260906083509 20 183 0.0 0.0 0.00 0.46 0.00 97 1009.5
20260906083103 20 183 0.0 0.0 0.00 0.46 0.00 97 1009.4
20260906082503 20 183 0.0 0.0 0.00 0.46 0.00 97 1009.4
20260906082009 20 183 0.0 0.0 0.00 0.46 0.00 97 1009.4
20260906081603 20 183 0.0 0.0 0.00 0.46 0.00 97 1009.3
20260906081003 20 183 0.0 0.0 0.00 0.46 0.00 97 1009.2
20260906080509 20 183 0.0 0.0 0.00 0.46 0.00 97 1009.0
20260906080103 20 183 0.0 0.0 0.00 0.46 0.00 97 1009.1
20260906075502 20 183 0.0 0.0 0.00 0.46 0.00 97 1009.0
20260906075009 20 183 0.0 0.0 0.00 0.46 0.00 97 1009.1
20260906074509 20 183 0.0 0.0 0.00 0.46 0.00 97 1009.1
20260906074103 20 183 0.0 0.0 0.00 0.46 0.00 97 1009.2
20260906073503 20 183 0.0 0.0 0.00 0.46 0.00 97 1009.3
20260906073009 20 183 0.0 0.0 0.00 0.46 0.00 97 1009.3
20260906072602 20 183 0.0 0.0 0.00 0.46 0.00 97 1009.2
20260906072003 20 183 0.0 0.0 0.00 0.46 0.00 97 1009.3
20260906071508 20 183 0.0 0.0 0.00 0.46 0.00 97 1009.4
20260906071105 20 183 0.0 0.0 0.00 0.46 0.00 97 1009.3
20260906070502 20 183 0.0 0.0 0.00 0.46 0.00 97 1009.3
20260906070014 20 183 0.0 0.0 0.00 0.46 0.00 97 1009.3
20260906065503 20 183 0.0 0.0 0.00 0.46 0.00 97 1009.4
20260906065009 20 183 0.0 0.0 0.00 0.46 0.00 97 1009.5
20260906064502 20 183 0.0 0.0 0.00 0.46 0.00 97 1009.5
20260906064103 20 183 0.0 0.0 0.00 0.46 0.00 97 1009.5
20260906063503 20 183 0.0 0.0 0.00 0.46 0.00 97 1009.6
20260906063102 20 183 0.0 0.0 0.00 0.46 0.00 96 1009.7
20260906062502 20 183 0.0 0.0 0.00 0.46 0.00 96 1009.6
20260906062009 20 183 0.0 0.0 0.00 0.46 0.00 97 1009.5
20260906061626 20 183 0.0 0.0 0.00 0.46 0.00 97 1009.5
20260906061003 20 183 0.0 0.0 0.00 0.46 0.00 97 1009.7
20260906060509 20 183 0.0 0.0 0.00 0.46 0.00 97 1009.7
20260906060119 20 183 0.0 0.0 0.00 0.46 0.00 97 1009.8
20260906055503 20 183 0.0 0.0 0.00 0.46 0.00 97 1009.7
20260906055010 20 183 0.0 0.0 0.00 0.46 0.00 97 1009.7
20260906054604 20 183 0.0 0.0 0.00 0.46 0.00 97 1009.9
20260906054003 20 183 0.0 0.0 0.00 0.46 0.00 96 1009.8
20260906053511 20 183 0.0 0.0 0.00 0.46 0.00 96 1009.8
20260906053103 21 183 0.0 0.0 0.00 0.46 0.00 96 1009.9
20260906052503 21 183 0.0 0.0 0.00 0.46 0.00 97 1009.8
20260906052012 21 183 0.0 0.0 0.00 0.46 0.00 97 1009.7
20260906051609 21 183 0.0 0.0 0.00 0.46 0.00 97 1009.7
20260906051005 21 183 0.0 0.0 0.00 0.46 0.00 97 1009.8
20260906050514 21 183 0.0 0.0 0.00 0.46 0.00 97 1009.9
20260906045502 21 183 0.0 0.0 0.00 0.46 0.00 97 1010.1
20260906045009 21 183 0.0 0.0 0.00 0.46 0.00 97 1010.1
20260906044509 21 183 0.0 0.0 0.00 0.46 0.00 97 1010.1
20260906044106 21 183 0.0 0.0 0.00 0.46 0.00 97 1010.2
20260906043605 21 183 0.0 0.0 0.00 0.46 0.00 97 1010.3
20260906043011 21 183 0.0 0.0 0.00 0.46 0.00 97 1010.4
20260906042509 21 183 0.0 0.0 0.00 0.46 0.00 97 1010.5
20260906042102 21 183 0.0 0.0 0.00 0.46 0.00 97 1010.5
20260906041504 21 183 0.0 0.0 0.00 0.46 0.00 97 1010.6
20260906041003 21 183 0.0 0.0 0.00 0.46 0.00 97 1010.6
20260906040502 21 183 0.0 0.0 0.00 0.46 0.00 97 1010.6
20260906040009 21 183 0.0 0.0 0.00 0.46 0.00 97 1010.4
20260906035603 21 183 0.0 1.6 0.00 0.46 0.46 97 1010.5
20260906035003 21 183 0.0 1.6 0.00 0.46 0.46 96 1010.5
20260906034508 21 183 0.0 0.0 0.00 0.46 0.46 96 1010.5
20260906033502 21 183 0.0 0.0 0.00 0.46 0.46 96 1010.3
20260906033009 21 183 0.0 0.0 0.00 0.46 0.46 96 1010.3
20260906032604 21 183 0.0 0.0 0.00 0.46 0.46 96 1010.3
20260906032004 21 183 0.0 0.0 0.00 0.46 0.46 96 1010.2
20260906031510 21 183 0.0 0.0 0.00 0.46 0.46 96 1010.0
20260906031106 21 183 0.0 0.0 0.00 0.46 0.46 96 1010.0
20260906030503 21 183 0.0 0.0 0.00 0.46 0.46 96 1010.1
20260906030009 21 183 0.0 0.0 0.00 0.46 0.46 96 1010.1
20260906025604 21 183 0.0 0.0 0.00 0.46 0.46 96 1010.1
20260906025003 21 183 0.0 0.0 0.00 0.46 0.46 96 1010.0
20260906024509 21 183 0.0 0.0 0.00 0.46 0.46 96 1010.0
20260906024104 21 183 0.0 0.0 0.00 0.46 0.46 96 1010.0
20260906023503 21 183 0.0 0.0 0.00 0.46 0.46 96 1009.9
20260906023009 21 183 0.0 0.0 0.00 0.46 0.46 96 1009.8
20260906022602 21 183 0.0 0.0 0.00 0.46 0.46 96 1009.9
20260906022003 21 183 0.0 0.0 0.00 0.46 0.46 96 1009.9
20260906021519 21 183 0.0 0.0 0.00 0.46 0.46 96 1010.0
20260906021103 21 183 0.0 0.0 0.00 0.46 0.46 96 1009.9
20260906020503 21 183 0.0 0.0 0.00 0.46 0.46 96 1009.8
20260906020013 21 183 0.0 0.0 0.00 0.46 0.46 95 1009.8
20260906015602 21 183 0.0 0.0 0.00 0.46 0.46 95 1009.8
20260906015003 21 183 0.0 0.0 0.00 0.46 0.46 96 1009.8
20260906014514 22 183 0.0 0.0 0.00 0.46 0.46 96 1009.8
20260906014102 22 183 0.0 0.0 0.00 0.46 0.46 96 1009.7
20260906013506 22 183 0.0 0.0 0.00 0.46 0.46 96 1009.7
20260906013020 22 183 0.0 0.0 0.00 0.46 0.46 95 1009.8
20260906012602 22 183 0.0 0.0 0.00 0.46 0.46 95 1009.7
20260906012003 22 183 0.0 0.0 0.00 0.46 0.46 95 1009.7
20260906011509 22 183 0.0 0.0 0.00 0.46 0.46 95 1009.7
20260906011102 22 183 0.0 0.0 0.00 0.46 0.46 95 1009.6
20260906010505 22 183 0.0 0.0 0.00 0.46 0.46 95 1009.5
20260906010011 22 183 0.0 0.0 0.00 0.46 0.46 95 1009.6
20260906005602 22 183 0.0 0.0 0.00 0.46 0.46 95 1009.5
20260906005003 22 183 0.0 0.0 0.00 0.46 0.46 95 1009.3
20260906004509 22 183 0.0 0.0 0.00 0.46 0.46 95 1009.3
20260906004105 22 183 0.0 0.0 0.00 0.46 0.46 95 1009.4
20260906003503 22 183 0.0 0.0 0.00 0.46 0.46 95 1009.3
20260906003018 22 183 0.0 0.0 0.00 0.46 0.46 95 1009.4
20260906002603 22 183 0.0 0.0 0.00 0.46 0.46 95 1009.3
20260906002003 22 183 0.0 0.0 0.00 0.46 0.46 94 1009.3
20260906001512 22 183 0.0 0.0 0.00 0.46 0.46 94 1009.2
20260906001103 22 183 0.0 0.0 0.00 0.46 0.46 94 1009.2
20260906000503 23 183 0.0 0.0 0.00 0.46 0.46 94 1009.2
20260906000008 23 183 0.0 0.0 0.00 0.46 0.46 94 1009.1
20260905235606 23 183 0.0 0.0 0.00 0.46 0.46 94 1009.0
20260905235003 23 183 0.0 0.0 0.00 0.46 0.46 94 1008.9
20260905234509 23 183 0.0 0.0 0.00 0.46 0.46 94 1008.7
20260905234103 23 183 0.0 0.0 0.00 0.46 0.46 94 1008.8
20260905233502 23 183 0.0 0.0 0.00 0.46 0.46 94 1008.6
20260905233014 23 183 0.0 0.0 0.00 0.46 0.46 95 1008.5
20260905232604 23 183 0.0 0.0 0.00 0.46 0.46 95 1008.5
20260905232003 23 183 0.0 0.0 0.00 0.46 0.46 94 1008.5
20260905231510 23 183 0.0 0.0 0.00 0.46 0.46 94 1008.5
20260905231103 23 183 0.0 0.0 0.00 0.46 0.46 94 1008.5
20260905230503 23 183 0.0 0.0 0.00 0.46 0.46 95 1008.4
20260905230009 23 183 0.0 0.0 0.00 0.46 0.46 94 1008.4
20260905225604 23 180 0.0 0.0 0.00 0.46 0.46 94 1008.4
20260905225003 23 180 0.0 0.0 0.00 0.46 0.46 94 1008.5
20260905224515 23 180 0.0 0.0 0.00 0.46 0.46 94 1008.4
20260905224104 23 180 0.0 0.0 0.00 0.46 0.46 93 1008.5
20260905223505 23 180 0.0 0.0 0.00 0.46 0.46 94 1008.5
20260905223009 23 180 0.0 0.0 0.00 0.46 0.46 94 1008.7
20260905222602 23 180 0.0 0.0 0.00 0.46 0.46 94 1008.7
20260905222002 23 180 0.0 0.0 0.00 0.46 0.46 94 1008.8
20260905221511 23 180 0.0 0.0 0.00 0.46 0.46 94 1008.8
20260905221102 23 180 0.0 0.0 0.00 0.46 0.46 94 1008.8
20260905220502 23 180 0.0 0.0 0.00 0.46 0.46 94 1008.8
20260905220009 23 180 0.0 0.0 0.00 0.46 0.46 94 1008.8
20260905215604 23 180 0.0 0.0 0.00 0.46 0.46 94 1008.9
20260905215006 23 180 0.0 0.0 0.00 0.46 0.46 94 1009.0
20260905214510 23 180 0.0 0.0 0.00 0.46 0.46 94 1009.0
20260905214103 23 180 0.0 0.0 0.00 0.46 0.46 94 1009.0
20260905213503 23 180 0.0 0.0 0.00 0.46 0.46 95 1009.0
20260905213008 23 180 0.0 0.0 0.00 0.46 0.46 94 1009.0
20260905212603 23 180 0.0 0.0 0.00 0.46 0.46 94 1009.1
20260905212002 23 180 0.0 0.0 0.00 0.46 0.46 94 1009.2
20260905211508 23 180 0.0 0.0 0.00 0.46 0.46 94 1009.3
20260905211105 23 180 0.0 0.0 0.00 0.46 0.46 94 1009.3
20260905210504 23 180 0.0 0.0 0.00 0.46 0.46 95 1009.4
20260905210009 22 180 0.0 0.0 0.00 0.46 0.46 94 1009.6
20260905205603 22 180 0.0 0.0 0.00 0.46 0.46 95 1009.8
20260905205002 22 180 0.0 1.6 0.00 0.46 0.46 95 1009.4
20260905204511 22 207 0.0 3.2 0.00 0.46 0.46 95 1009.3
20260905204102 22 193 0.0 3.2 0.00 0.46 0.46 96 1009.1
20260905203502 22 194 0.0 6.4 0.00 0.46 0.46 96 1009.0
20260905203009 22 193 0.0 6.4 0.00 0.46 0.46 95 1008.9
20260905202603 22 171 0.0 0.0 0.00 0.46 0.46 95 1009.0